User: anonymous   Login
Location: Rehoboth Beach
(38.7438°N, 75.1341°W)
Time: 03:56:50
(UTC-04:00)
Language:

Cosmos 1452 Rocket - Orbit

View from above orbital plane
View from above orbital plane
View from above satellite
View from above satellite

Ground track
Ground track

The orbit data is extracted from the following two-line orbital elements,

1 13992U 83031B   16144.51987252  .00000083  00000-0  37636-4 0  9994
2 13992  74.0537   1.8026 0004166  79.5044 345.1289 14.36034613732875
Epoch (UTC): 23 May 2016 12:28:36
Eccentricity: 0.0004166
inclination: 74.0537°
perigee height: 768 km
apogee height: 774 km
right ascension of ascending node: 1.8026°
argument of perigee: 79.5044°
revolutions per day: 14.36034613
mean anomaly at epoch: 345.1289°
orbit number at epoch: 73287

The dashed part of the orbit path shows where the satellite is in the earth's shadow,  

DLR